Regional Weather Roundup
Issued by NWS

Home | Current Version | Previous Version | Graphics & Text | Print | Product List | Glossary On
Versions: 1 2 3 4 5 6 7 8 9 10 11 12 13 14 15 16 17 18 19 20 21 22 23 24 25 26 27 28 29 30 31 32 33 34 35 36 37 38 39 40 41 42 43 44 45 46 47 48 49 50
000
ASUS45 KPSR 271200
RWRAZ

PRELIMINARY ARIZONA REGIONAL HOURLY WEATHER ROUNDUP
NATIONAL WEATHER SERVICE PHOENIX AZ
500 AM MST SAT DEC 27 2014

NOTE: FAIR INDICATES FEW OR NO CLOUDS BELOW 12,000 FEET WITH NO
SIGNIFICANT WEATHER AND/OR OBSTRUCTIONS TO VISIBILITY.

AZZ001>003-036-271300-
NORTHWEST ARIZONA

CITY           SKY/WX    TMP DP  RH WIND       PRES   REMARKS
KINGMAN        CLEAR     22  14  71 SE8       30.23R WCI  12
6HR MIN TEMP:  22; 6HR MAX TEMP:  29;

$$

AZZ004>008-015-016-018-271300-
NORTH CENTRAL ARIZONA

CITY           SKY/WX    TMP DP  RH WIND       PRES   REMARKS
GRAND CANYON   CLEAR      4   0  83 CALM      30.13R
6HR MIN TEMP:   4; 6HR MAX TEMP:  11;

PRESCOTT       CLEAR     20   9  62 W9        30.14R WCI   9
6HR MIN TEMP:  20; 6HR MAX TEMP:  24;

FLAGSTAFF      NOT AVBL
PAYSON         CLEAR     27  10  50 N8G14     30.12R WCI  18
PAGE           CLEAR     29   6  38 W3        30.21R
6HR MIN TEMP:  29; 6HR MAX TEMP:  32; 6HR PCP: TRACE;

$$

AZZ009>014-017-271300-
NORTHEAST ARIZONA

CITY           SKY/WX    TMP DP  RH WIND       PRES   REMARKS
WINSLOW        NOT AVBL
SAINT JOHNS    CLEAR     16  11  80 CALM      30.10R
6HR MIN TEMP:  15; 6HR MAX TEMP:  27;

WINDOW ROCK    PTCLDY     0  -6  76 CALM      30.11R
6HR MIN TEMP:   0; 6HR MAX TEMP:  12;

$$

AZZ023-271300-
GREATER PHOENIX AREA

CITY           SKY/WX    TMP DP  RH WIND       PRES   REMARKS
PHOENIX        CLEAR     38  25  59 CALM      30.15R
6HR MIN TEMP:  37; 6HR MAX TEMP:  44;

LUKE AFB       CLEAR     36  22  58 N6        30.16R WCI  31
6HR MIN TEMP:  34; 6HR MAX TEMP:  40;

DEER VALLEY    CLEAR     34  22  61 CALM      30.14R
6HR MIN TEMP:  33; 6HR MAX TEMP:  41;

SCOTTSDALE     CLEAR     34  24  67 CALM      30.16R
6HR MIN TEMP:  33; 6HR MAX TEMP:  41;

MESA-GATEWAY   CLEAR     28  16  59 SE8       30.17S WCI  20
$$

AZZ027-028-271300-
SOUTHWEST MARICOPA COUNTY AND PINAL COUNTY

CITY           SKY/WX    TMP DP  RH WIND       PRES   REMARKS
CASA GRANDE    CLEAR     28  19  69 CALM      30.16R
6HR MIN TEMP:  28; 6HR MAX TEMP:  37;

$$

AZZ503-504-507>509-271300-
SOUTHEAST ARIZONA

CITY           SKY/WX    TMP DP  RH WIND       PRES   REMARKS
TUCSON         CLEAR     29  25  85 SE5       30.15R WCI  24
DAVIS-MONTHAN  CLEAR     29  24  82 S5        30.12R WCI  24
6HR MIN TEMP:  29; 6HR MAX TEMP:  35;

NOGALES        CLEAR     22  15  75 CALM      30.09R
6HR MIN TEMP:  21; 6HR MAX TEMP:  29;

SIERRA VISTA   CLEAR     24  13  62 CALM      30.07R
6HR MIN TEMP:  24; 6HR MAX TEMP:  30;

SAFFORD        CLEAR     25  19  78 CALM      30.10S
6HR MIN TEMP:  25; 6HR MAX TEMP:  34;

$$

AZZ020-021-025-026-031-271300-
SOUTHWEST ARIZONA

CITY           SKY/WX    TMP DP  RH WIND       PRES   REMARKS
YUMA           NOT AVBL
$$

CAZ031-033-041-043-047-048-061-271300-
SOUTHERN CALIFORNIA

CITY           SKY/WX    TMP DP  RH WIND       PRES   REMARKS
DOWNTOWN L.A.  CLEAR     41  27  57 CALM      30.23S
6HR MIN TEMP:  41; 6HR MAX TEMP:  50;

L.A. AIRPORT   CLEAR     47  18  31 CALM      30.24S
6HR MIN TEMP:  46; 6HR MAX TEMP:  54;

SAN DIEGO      CLEAR     48  20  32 N3        30.23R
6HR MIN TEMP:  46; 6HR MAX TEMP:  53;

BURBANK        CLEAR     40  21  46 CALM      30.22S
6HR MIN TEMP:  39; 6HR MAX TEMP:  50;

ONTARIO        CLEAR     50  11  20 NE20G37   30.21R
6HR MIN TEMP:  50; 6HR MAX TEMP:  53;

RIVERSIDE      CLEAR     49  12  22 S9        30.25R
6HR MIN TEMP:  48; 6HR MAX TEMP:  52;

PALM SPRINGS   CLEAR     52   8  17 E6        30.32R
6HR MIN TEMP:  46; 6HR MAX TEMP:  55;

EL CENTRO NAS  CLEAR     41  21  44 NW13      30.28R
6HR MIN TEMP:  37; 6HR MAX TEMP:  47;

IMPERIAL       CLEAR     44  23  43 NW10      30.27R
6HR MIN TEMP:  38; 6HR MAX TEMP:  47;

BLYTHE         CLEAR     44  16  32 N10       30.25R
6HR MIN TEMP:  41; 6HR MAX TEMP:  47;

$$

NVZ020-UTZ003-271300-
SOUTHERN NEVADA-UTAH

CITY           SKY/WX    TMP DP  RH WIND       PRES   REMARKS
LAS VEGAS      NOT AVBL
SALT LAKE CITY MOCLDY    20  14  77 S7        30.31R WCI  11
6HR MIN TEMP:  18; 6HR MAX TEMP:  24;

$$

NMZ009-TXZ055-271300-
NEW MEXICO-WEST TEXAS

CITY           SKY/WX    TMP DP  RH WIND       PRES   REMARKS
ALBUQUERQUE    CLEAR     18  12  77 E5        30.12R WCI  11
6HR MIN TEMP:  17; 6HR MAX TEMP:  27;

EL PASO        CLOUDY    35  33  92 SE8       30.09R WCI  29
6HR MIN TEMP:  35; 6HR MAX TEMP:  38;

$$


........................KEY........................
SKY/WX - SKY CONDITION/WEATHER
TMP    - TEMPERATURE IN FAHRENHEIT
DP     - DEW POINT IN FAHRENHEIT
RH     - RELATIVE HUMIDITY IN PERCENT
WIND   - DIRECTION AND SPEED IN MILES PER HOUR (MPH)
VRB    - VARIABLE WIND DIRECTION
PRES   - MEAN SEA LEVEL PRESSURE IN INCHES OF MERCURY
         F - FALLING PRESSURE   R - RISING PRESSURE
         S - STEADY PRESSURE
VSB    - VISIBILITY IN MILES
HX     - HEAT INDEX IN FAHRENHEIT
WCI    - WIND CHILL INDEX IN FAHRENHEIT
TC     - TEMPERATURE IN CELSIUS WHICH IS ALSO KNOWN AS
         TEMPERATURE IN CENTIGRADE
AFB    - AIR FORCE BASE
         LUKE AFB IS LUKE AIR FORCE BASE
         DAVIS-MONTHAN IS DAVIS-MONTHAN AIR FORCE BASE
NAS    - NAVAL AIR STATION
         EL CENTRO NAS IS EL CENTRO NAVAL AIR STATION
N/A    - NOT AVAILABLE


USA.gov is the U.S. government's official web portal to all federal, state and local government web resources and services.